User: anonymous   Login
Location: Lawrence
(38.9720°N, 95.2350°W)
Time: 23:00:36
(UTC-05:00)
Language:

ALOS - Orbit

View from above orbital plane
View from above orbital plane
View from above satellite
View from above satellite

Ground track
Ground track

The orbit data is extracted from the following two-line orbital elements,

1 28931U 06002A   17290.61477963 +.00000309 +00000-0 +69710-4 0  9992
2 28931 097.8366 311.8001 0000859 053.2077 306.9204 14.62407983625353
Epoch (UTC): 17 October 2017 14:45:16
Eccentricity: 0.0000859
inclination: 97.8366°
perigee height: 685 km
apogee height: 686 km
right ascension of ascending node: 311.8001°
argument of perigee: 53.2077°
revolutions per day: 14.62407983
mean anomaly at epoch: 306.9204°
orbit number at epoch: 62535

The dashed part of the orbit path shows where the satellite is in the earth's shadow,  

DLR